Location: Niverville
(49.6028°N, 97.0419°W)
Time: 08:40:49
(UTC-05:00)

Amateur Radio Satellites - All Passes

Search period start: 27 April 2015 08:10
Search period end: 28 April 2015 08:10
Location: Niverville, 49.6028°N, 97.0419°W

Satellite Date Start Highest point End Downlink Frequencies (MHz)
Time Altitude Azimuth
AUBIESAT-1 27 Apr 08:14:11 08:16:37 13° 269° (W) 08:18:51 437.475
Cosmos 2499 27 Apr 08:26:45 08:31:52 19° 284° (WNW) 08:36:29 435.465 / 435.565
BEESAT 3 27 Apr 08:31:49 08:32:57 11° 11° (NNE) 08:34:07 437.485
BEESAT 2 27 Apr 08:35:24 08:36:29 11° 10° (N) 08:37:36 435.950
Cosmos 2491 27 Apr 08:35:58 08:42:37 24° 54° (NE) 08:49:30 435.465 / 435.565
GOMX 1 27 Apr 08:36:27 08:38:44 13° 84° (E) 08:41:19 467.674
AO-7 27 Apr 08:43:29 08:49:08 20° 320° (NW) 08:54:34 29.400- 29.500
PRISM 27 Apr 08:44:02 08:46:00 13° 273° (W) 08:47:48 437.425
HO-68 27 Apr 08:44:13 08:48:15 16° 83° (E) 08:52:39 435.675
CANX-2 27 Apr 08:51:33 08:51:51 10° 83° (E) 08:52:23 2200.000
BRITE-PL 27 Apr 08:56:13 09:00:32 28° 93° (E) 09:05:10 437.365/2234.400
CUTE 1.7 + AOD 2 27 Apr 08:59:29 09:00:48 11° 84° (E) 09:02:20 437.475
DOVE 4 27 Apr 09:04:10 09:07:14 16° 86° (E) 09:10:33 437.250
PCSat 27 Apr 09:27:03 09:32:29 86° 121° (ESE) 09:37:58 145.827
TIGRISAT 27 Apr 09:27:38 09:29:34 13° 55° (NE) 09:31:41 435.000
UNISAT 6 27 Apr 09:32:14 09:34:36 14° 57° (ENE) 09:37:09 437.425
CUTE-I 27 Apr 09:32:33 09:36:44 23° 301° (WNW) 09:40:48 437.470
CINEMA 3 27 Apr 09:35:46 09:38:49 16° 86° (E) 09:42:04 145.822/145.860
Cubesat XI-IV 27 Apr 09:42:59 09:46:48 20° 303° (WNW) 09:50:30 437.490
COMPASS 1 27 Apr 09:45:04 09:48:22 22° 91° (E) 09:51:42 437.405
O/OREOS (USA 219) 27 Apr 09:45:32 09:48:31 17° 258° (WSW) 09:51:21 437.305
AIST 2 27 Apr 09:46:13 09:48:14 13° 16° (NNE) 09:50:17 435.215
YUBILEINY 27 Apr 09:49:34 09:55:02 19° 75° (ENE) 10:00:55 435.215
QB50P1 27 Apr 10:00:29 10:02:03 12° 57° (ENE) 10:03:48 145.935-145.965
BEESAT 3 27 Apr 10:08:51 10:12:20 26° 34° (NE) 10:15:49 437.485
Oscar 11 27 Apr 10:11:57 10:15:00 19° 89° (E) 10:18:09 145.826/435.025
ANTELSAT 27 Apr 10:12:24 10:16:22 30° 64° (ENE) 10:20:27 437.575/2403.000
GOMX 1 27 Apr 10:12:32 10:17:39 81° 102° (ESE) 10:23:05 467.674
BEESAT 2 27 Apr 10:12:33 10:16:00 24° 33° (NNE) 10:19:26 435.950
SEEDS 27 Apr 10:12:51 10:17:01 50° 99° (E) 10:21:08 437.485
ZACube-1 27 Apr 10:17:19 10:19:35 14° 85° (E) 10:22:03 437.345
CANX-2 27 Apr 10:24:15 10:28:35 85° 101° (E) 10:32:51 2200.000
QB50P2 27 Apr 10:25:29 10:28:33 20° 62° (ENE) 10:31:44 145.880/145.840
AAUSAT CUBESAT 2 27 Apr 10:25:40 10:29:46 48° 99° (E) 10:33:49 437.432
HO-68 27 Apr 10:30:09 10:37:23 75° 105° (ESE) 10:44:34 435.675
Cosmos 2491 27 Apr 10:32:12 10:41:07 83° 79° (E) 10:49:59 435.465 / 435.565
CUTE 1.7 + AOD 2 27 Apr 10:33:07 10:37:26 86° 289° (WNW) 10:41:42 437.475
BRITE-PL 27 Apr 10:34:23 10:39:15 49° 290° (WNW) 10:44:26 437.365/2234.400
DOVE 4 27 Apr 10:40:31 10:45:38 83° 286° (WNW) 10:50:56 437.250
NANOSAT C BR1 27 Apr 10:41:47 10:45:19 27° 65° (ENE) 10:48:56 145.865
POPSAT HIP 1 27 Apr 10:45:41 10:49:20 29° 66° (ENE) 10:53:03 437.405
DX 1 27 Apr 10:49:00 10:51:32 15° 89° (E) 10:54:13 434.975-435.025
AIST 1 27 Apr 10:51:05 10:53:02 13° 61° (ENE) 10:55:08
CUBEBUG 2 27 Apr 10:58:49 11:03:28 48° 98° (E) 11:08:05 437.445
BUGSAT 1 27 Apr 11:00:49 11:04:16 28° 66° (ENE) 11:07:47 437.445
TIGRISAT 27 Apr 11:01:00 11:05:34 77° 73° (ENE) 11:10:16 435.000
UNISAT 6 27 Apr 11:06:08 11:10:43 87° 71° (ENE) 11:15:26 437.425
CINEMA 3 27 Apr 11:11:38 11:16:39 78° 285° (WNW) 11:21:41 145.822/145.860
PCSat 27 Apr 11:12:05 11:16:36 26° 327° (NNW) 11:21:05 145.827
DUCHIFAT 1 27 Apr 11:14:29 11:18:34 53° 71° (ENE) 11:22:43 145.980
POLYITAN 1 27 Apr 11:15:42 11:19:51 57° 72° (ENE) 11:24:03 437.675
COMPASS 1 27 Apr 11:20:15 11:24:16 42° 290° (WNW) 11:28:12 437.405
UWE-3 27 Apr 11:21:06 11:25:49 64° 101° (ESE) 11:30:28 435.000/436.395/437.385
AIST 2 27 Apr 11:24:06 11:28:02 34° 39° (NE) 11:31:56 435.215
DELFI C3 27 Apr 11:24:33 11:28:37 74° 101° (ESE) 11:32:39 145.870
FUNcube-1 27 Apr 11:25:49 11:30:23 57° 100° (E) 11:34:54 145.935
UKube-1 27 Apr 11:28:31 11:32:28 33° 96° (E) 11:36:26 .
ESTCUBE 1 27 Apr 11:31:41 11:33:24 12° 85° (E) 11:35:19 437.505/2401.250
HUMSAT D 27 Apr 11:32:28 11:36:27 34° 95° (E) 11:40:24 437.325/437.525
QB50P1 27 Apr 11:33:04 11:37:17 84° 76° (ENE) 11:41:34 145.935-145.965
YUBILEINY 27 Apr 11:41:46 11:50:34 78° 97° (E) 11:59:25 435.215
BEESAT 3 27 Apr 11:46:36 11:50:40 59° 235° (SW) 11:54:40 437.485
Oscar 11 27 Apr 11:47:17 11:51:33 53° 289° (WNW) 11:55:46 145.826/435.025
ANTELSAT 27 Apr 11:48:44 11:53:03 39° 264° (W) 11:57:26 437.575/2403.000
SEEDS 27 Apr 11:49:19 11:52:31 21° 297° (WNW) 11:55:38 437.485
BEESAT 2 27 Apr 11:50:21 11:54:29 65° 234° (SW) 11:58:32 435.950
GOMX 1 27 Apr 11:51:45 11:55:19 19° 300° (WNW) 11:58:51 467.674
ZACube-1 27 Apr 11:51:59 11:56:38 82° 285° (WNW) 12:01:13 437.345
QB50P2 27 Apr 12:00:01 12:04:09 52° 261° (W) 12:08:20 145.880/145.840
CANX-2 27 Apr 12:01:43 12:03:57 14° 302° (WNW) 12:06:02 2200.000
AAUSAT CUBESAT 2 27 Apr 12:01:56 12:05:06 21° 297° (WNW) 12:08:11 437.432
VELOX 1 27 Apr 12:02:25 12:06:35 39° 97° (E) 12:10:46 145.980
CUBEBUG 1 27 Apr 12:02:49 12:06:08 21° 91° (E) 12:09:31 437.445
50 SAT 27 Apr 12:02:57 12:06:50 42° 98° (E) 12:10:41 437.505
CUTE 1.7 + AOD 2 27 Apr 12:10:51 12:12:44 12° 303° (WNW) 12:14:28 437.475
ISS 27 Apr 12:11:34 12:14:01 20° 142° (SE) 12:16:30 145.825
NANOSAT C BR1 27 Apr 12:17:10 12:21:04 36° 263° (W) 12:25:00 145.865
Oscar 19 27 Apr 12:17:43 12:20:41 16° 55° (NE) 12:23:50 437.125/150
HO-68 27 Apr 12:18:33 12:24:35 29° 306° (NW) 12:30:29 435.675
DOVE 4 27 Apr 12:19:42 12:22:45 16° 302° (WNW) 12:25:42 437.250
AISAT 27 Apr 12:20:55 12:25:21 60° 101° (ESE) 12:29:47 437.250
POPSAT HIP 1 27 Apr 12:21:20 12:25:10 33° 264° (W) 12:29:01 437.405
DX 1 27 Apr 12:23:57 12:28:18 67° 288° (WNW) 12:32:38 434.975-435.025
SO-50 27 Apr 12:26:08 12:30:47 63° 125° (SE) 12:35:36 436.795
AIST 1 27 Apr 12:27:05 12:31:22 80° 262° (W) 12:35:38
Cosmos 2491 27 Apr 12:30:09 12:37:05 26° 281° (W) 12:43:44 435.465 / 435.565
CUBEBUG 2 27 Apr 12:35:56 12:39:55 26° 296° (WNW) 12:43:50 437.445
BUGSAT 1 27 Apr 12:36:07 12:39:43 31° 264° (W) 12:43:19 437.445
TISAT 1 27 Apr 12:39:36 12:40:59 12° 86° (E) 12:42:36 437.305
TIGRISAT 27 Apr 12:40:18 12:42:59 15° 274° (W) 12:45:30 435.000
UNISAT 6 27 Apr 12:46:04 12:48:17 13° 276° (W) 12:50:17 437.425
CINEMA 3 27 Apr 12:50:26 12:53:08 14° 303° (WNW) 12:55:40 145.822/145.860
DUCHIFAT 1 27 Apr 12:51:49 12:54:46 18° 270° (W) 12:57:37 145.980
POLYITAN 1 27 Apr 12:53:20 12:56:12 17° 271° (W) 12:58:56 437.675
ITAMSAT 1 27 Apr 12:57:44 12:59:47 13° 52° (NE) 13:02:02 435.822/435.867
UWE-3 27 Apr 12:58:28 13:01:55 20° 299° (WNW) 13:05:16 435.000/436.395/437.385
PCSat 27 Apr 12:59:32 13:01:59 13° 352° (N) 13:04:25 145.827
DELFI C3 27 Apr 13:01:04 13:03:16 14° 300° (WNW) 13:05:20 145.870
AIST 2 27 Apr 13:02:41 13:06:42 40° 239° (WSW) 13:10:37 435.215
FUNcube-1 27 Apr 13:02:51 13:06:22 21° 298° (WNW) 13:09:47 145.935
UKube-1 27 Apr 13:04:45 13:08:34 30° 295° (WNW) 13:12:20 .
Cosmos 2504 27 Apr 13:05:24 13:12:51 33° 83° (E) 13:20:21 435.465 / 435.565
ESTCUBE 1 27 Apr 13:06:29 13:11:01 87° 284° (WNW) 13:15:30 437.505/2401.250
HUMSAT D 27 Apr 13:08:19 13:12:08 30° 294° (WNW) 13:15:53 437.325/437.525
QB50P1 27 Apr 13:12:16 13:13:51 12° 275° (W) 13:15:14 145.935-145.965
SPROUT 27 Apr 13:15:35 13:19:31 33° 96° (E) 13:23:28 437.525
ZACube-1 27 Apr 13:30:01 13:32:19 13° 303° (WNW) 13:34:26 437.345
Gurwin Techsat 1B 27 Apr 13:36:34 13:40:29 22° 59° (ENE) 13:44:32 435.225
50 SAT 27 Apr 13:38:14 13:41:25 22° 296° (WNW) 13:44:30 437.505
CUBEBUG 1 27 Apr 13:38:33 13:42:46 48° 290° (WNW) 13:46:58 437.445
VELOX 1 27 Apr 13:39:14 13:43:02 28° 296° (WNW) 13:46:47 145.980
YUBILEINY 27 Apr 13:40:53 13:48:29 30° 301° (WNW) 13:55:54 435.215
ISS 27 Apr 13:46:46 13:50:01 82° 162° (SSE) 13:53:18 145.825
Oscar 19 27 Apr 13:54:10 13:59:21 84° 74° (ENE) 14:04:35 437.125/150
AISAT 27 Apr 13:58:21 14:01:35 19° 299° (WNW) 14:04:43 437.250
JAS-2 27 Apr 14:01:01 14:04:30 14° 45° (NE) 14:08:11 435.910
DX 1 27 Apr 14:02:53 14:03:48 10° 306° (NW) 14:04:30 434.975-435.025
SO-50 27 Apr 14:07:26 14:11:42 31° 327° (NNW) 14:16:02 436.795
BEESAT 27 Apr 14:07:41 14:10:45 17° 88° (E) 14:13:57 436.000
SWISSCUBE 27 Apr 14:10:19 14:13:42 20° 90° (E) 14:17:12 437.505
AO-7 27 Apr 14:11:06 14:17:02 23° 43° (NE) 14:23:11 29.400- 29.500
TISAT 1 27 Apr 14:13:10 14:17:27 85° 288° (WNW) 14:21:43 437.305
RS-15 27 Apr 14:32:23 14:42:18 45° 112° (ESE) 14:52:37 29.354- 29.394
ITAMSAT 1 27 Apr 14:33:18 14:38:25 65° 71° (ENE) 14:43:34 435.822/435.867
PCSat 27 Apr 14:44:36 14:47:44 15° 18° (NNE) 14:50:57 145.827
ESTCUBE 1 27 Apr 14:44:59 14:47:15 14° 303° (WNW) 14:49:22 437.505/2401.250
SPROUT 27 Apr 14:51:45 14:55:35 30° 294° (WNW) 14:59:21 437.525
HORYU 2 27 Apr 14:55:28 14:58:47 21° 61° (ENE) 15:02:12 437.375
Cosmos 2504 27 Apr 14:56:54 15:05:47 70° 284° (WNW) 15:14:26 435.465 / 435.565
KKS-1 27 Apr 15:08:06 15:10:08 13° 86° (E) 15:12:24 437.445
Gurwin Techsat 1B 27 Apr 15:14:44 15:20:02 70° 257° (WSW) 15:25:22 435.225
ITUPSAT 1 27 Apr 15:14:49 15:19:35 66° 103° (ESE) 15:24:18 437.325
ISS 27 Apr 15:23:17 15:26:31 57° 360° (N) 15:29:45 145.825
Oscar 19 27 Apr 15:36:18 15:39:28 16° 274° (W) 15:42:28 437.125/150
JAS-2 27 Apr 15:40:43 15:48:07 49° 65° (ENE) 15:55:10 435.910
BEESAT 27 Apr 15:44:23 15:49:09 68° 289° (WNW) 15:53:52 436.000
SWISSCUBE 27 Apr 15:47:19 15:52:01 60° 289° (WNW) 15:56:41 437.505
TISAT 1 27 Apr 15:50:48 15:52:37 12° 303° (WNW) 15:54:18 437.305
SO-50 27 Apr 15:50:54 15:53:44 15° 351° (N) 15:56:34 436.795
STARS 27 Apr 15:56:36 16:00:15 25° 93° (E) 16:03:57 437.465
AO-7 27 Apr 16:00:25 16:08:39 73° 66° (ENE) 16:16:56 29.400- 29.500
GONETS M04 27 Apr 16:06:33 16:13:48 31° 82° (E) 16:21:17
ITAMSAT 1 27 Apr 16:14:32 16:18:27 21° 270° (W) 16:22:13 435.822/435.867
PCSat 27 Apr 16:27:37 16:32:43 39° 42° (NE) 16:37:49 145.827
HORYU 2 27 Apr 16:30:40 16:35:06 56° 259° (W) 16:39:34 437.375
KKS-1 27 Apr 16:42:56 16:47:27 82° 286° (WNW) 16:51:57 437.445
RS-15 27 Apr 16:43:21 16:54:16 69° 318° (NW) 17:05:33 29.354- 29.394
ITUPSAT 1 27 Apr 16:53:35 16:57:04 20° 301° (WNW) 17:00:26 437.325
Cosmos 2504 27 Apr 16:54:49 17:01:05 20° 309° (NW) 17:06:53 435.465 / 435.565
Gurwin Techsat 1B 27 Apr 16:59:37 17:01:08 11° 278° (W) 17:02:20 435.225
ISS 27 Apr 16:59:44 17:03:00 84° 203° (SSW) 17:06:17 145.825
DANDE 27 Apr 17:00:57 17:03:06 15° 79° (E) 17:05:46 436.750
Cosmos 2499 27 Apr 17:23:25 17:28:27 18° 75° (ENE) 17:33:49 435.465 / 435.565
BEESAT 27 Apr 17:24:22 17:26:12 12° 307° (NW) 17:27:50 436.000
MOZHAYETS 4 27 Apr 17:25:16 17:29:02 25° 92° (E) 17:32:50
JAS-2 27 Apr 17:25:41 17:33:13 46° 264° (W) 17:40:20 435.910
SWISSCUBE 27 Apr 17:27:56 17:29:00 11° 308° (NW) 17:29:51 437.505
STARS 27 Apr 17:32:40 17:36:53 42° 292° (WNW) 17:41:05 437.465
SO-50 27 Apr 17:33:02 17:36:08 17° 15° (NNE) 17:39:20 436.795
CUTE-I 27 Apr 17:39:20 17:43:45 28° 61° (ENE) 17:48:14 437.470
CUSAT 1 27 Apr 17:47:41 17:51:40 57° 95° (E) 17:57:03 437.405
Cubesat XI-IV 27 Apr 17:49:17 17:53:58 33° 63° (ENE) 17:58:43 437.490
AO-7 27 Apr 17:55:02 18:02:14 31° 268° (W) 18:09:18 29.400- 29.500
GONETS M04 27 Apr 18:01:15 18:10:01 71° 284° (WNW) 18:18:54
PCSat 27 Apr 18:11:05 18:16:16 46° 243° (WSW) 18:21:25 145.827
VERMONT LUNAR 27 Apr 18:18:22 18:20:38 17° 174° (S) 18:22:55 437.305
KKS-1 27 Apr 18:21:20 18:23:26 13° 304° (NW) 18:25:23 437.445
ISS 27 Apr 18:36:29 18:39:03 21° 218° (SW) 18:41:33 145.825
DANDE 27 Apr 18:41:38 18:45:25 60° 288° (WNW) 18:50:32 436.750
RS-15 27 Apr 18:58:47 19:08:58 39° 349° (N) 19:19:31 29.354- 29.394
MOZHAYETS 4 27 Apr 19:02:06 19:06:29 43° 291° (WNW) 19:10:48
CUBESAT XI-V 27 Apr 19:07:50 19:11:33 24° 92° (E) 19:15:19 437.345
PHONESAT 2.4 27 Apr 19:08:29 19:10:58 18° 172° (S) 19:13:27 2401.200-2431.200
M-CUBED/EXP-1 PRIME 27 Apr 19:09:22 19:12:02 17° 93° (E) 19:14:40 437.505
Cosmos 2499 27 Apr 19:11:35 19:20:22 72° 95° (E) 19:28:50 435.465 / 435.565
SO-50 27 Apr 19:13:21 19:18:00 39° 38° (NE) 19:22:40 436.795
HO-68 27 Apr 19:17:47 19:23:05 23° 50° (NE) 19:28:33 435.675
CUTE-I 27 Apr 19:18:24 19:23:36 53° 260° (W) 19:28:48 437.470
Cubesat XI-IV 27 Apr 19:28:54 19:33:59 43° 262° (W) 19:39:04 437.490
CUSAT 1 27 Apr 19:31:44 19:35:11 21° 305° (NW) 19:39:16 437.405
CANX-2 27 Apr 19:47:43 19:50:04 15° 59° (ENE) 19:52:34 2200.000
AUBIESAT-1 27 Apr 19:48:53 19:52:45 35° 101° (ESE) 19:56:19 437.475
GOMX 1 27 Apr 19:49:14 19:52:12 19° 60° (ENE) 19:55:25 467.674
YUBILEINY 27 Apr 19:51:32 19:55:23 14° 41° (NE) 19:59:39 435.215
VERMONT LUNAR 27 Apr 19:55:16 19:57:24 16° 190° (S) 19:59:30 437.305
CUTE 1.7 + AOD 2 27 Apr 19:56:13 19:58:49 16° 60° (ENE) 20:01:32 437.475
GONETS M04 27 Apr 20:02:41 20:08:56 20° 310° (NW) 20:14:53
STRAND 1 27 Apr 20:07:18 20:12:06 41° 97° (E) 20:16:55 437.568
BRITE-PL 27 Apr 20:12:05 20:16:01 40° 68° (ENE) 20:20:12 437.365/2234.400
DOVE 4 27 Apr 20:14:25 20:17:46 22° 62° (ENE) 20:21:23 437.250
PRISM 27 Apr 20:19:17 20:23:23 66° 102° (ESE) 20:27:28 437.425
CUBEBUG 2 27 Apr 20:28:52 20:29:46 11° 54° (NE) 20:30:52 437.445
COMPASS 1 27 Apr 20:40:28 20:44:03 28° 66° (ENE) 20:47:44 437.405
CINEMA 3 27 Apr 20:41:55 20:45:21 23° 62° (ENE) 20:49:01 145.822/145.860
M-CUBED/EXP-1 PRIME 27 Apr 20:43:10 20:47:24 57° 295° (WNW) 20:51:15 437.505
DELFI C3 27 Apr 20:44:28 20:45:35 11° 57° (ENE) 20:46:52 145.870
CUBESAT XI-V 27 Apr 20:44:49 20:49:15 46° 290° (WNW) 20:53:38 437.345
PHONESAT 2.4 27 Apr 20:46:00 20:48:29 18° 189° (S) 20:50:58 2401.200-2431.200
UWE-3 27 Apr 20:48:51 20:50:55 13° 57° (ENE) 20:53:12 435.000/436.395/437.385
FUNcube-1 27 Apr 20:52:55 20:54:25 12° 55° (NE) 20:56:07 145.935
SO-50 27 Apr 20:53:55 20:58:41 46° 238° (WSW) 21:03:22 436.795
HO-68 27 Apr 21:02:45 21:09:58 85° 72° (ENE) 21:17:14 435.675
Cosmos 2499 27 Apr 21:06:29 21:14:19 33° 298° (WNW) 21:21:42 435.465 / 435.565
SEEDS 27 Apr 21:08:52 21:13:06 62° 73° (ENE) 21:17:21 437.485
Oscar 11 27 Apr 21:10:48 21:14:24 26° 64° (ENE) 21:18:04 145.826/435.025
RS-15 27 Apr 21:14:03 21:24:42 44° 22° (NNE) 21:35:52 29.354- 29.394
ZACube-1 27 Apr 21:17:25 21:20:30 19° 61° (ENE) 21:23:44 437.345
AAUSAT CUBESAT 2 27 Apr 21:20:27 21:24:37 58° 72° (ENE) 21:28:47 437.432
CANX-2 27 Apr 21:21:09 21:25:29 79° 257° (WSW) 21:29:50 2200.000
AUBIESAT-1 27 Apr 21:23:48 21:27:26 27° 302° (WNW) 21:30:47 437.475
GOMX 1 27 Apr 21:25:42 21:29:55 60° 260° (W) 21:34:25 467.674
CUTE 1.7 + AOD 2 27 Apr 21:29:58 21:34:16 71° 258° (WSW) 21:38:36 437.475
Cosmos 2491 27 Apr 21:45:38 21:51:18 20° 76° (ENE) 21:57:21 435.465 / 435.565
YUBILEINY 27 Apr 21:46:40 21:55:07 50° 69° (ENE) 22:03:32 435.215
STRAND 1 27 Apr 21:46:42 21:51:14 33° 296° (WNW) 21:55:44 437.568
DX 1 27 Apr 21:48:32 21:52:00 24° 63° (ENE) 21:55:31 434.975-435.025
AISAT 27 Apr 21:49:08 21:51:18 14° 57° (ENE) 21:53:39 437.250
DOVE 4 27 Apr 21:51:01 21:55:15 50° 262° (W) 21:59:44 437.250
BRITE-PL 27 Apr 21:51:25 21:54:50 23° 269° (W) 21:58:18 437.365/2234.400
PRISM 27 Apr 21:55:53 21:58:26 16° 300° (WNW) 22:00:51 437.425
CUBEBUG 2 27 Apr 22:01:11 22:05:36 65° 72° (ENE) 22:10:11 437.445
COMPASS 1 27 Apr 22:15:45 22:19:40 35° 264° (W) 22:23:35 437.405
DELFI C3 27 Apr 22:16:00 22:20:05 82° 75° (ENE) 22:24:12 145.870
CINEMA 3 27 Apr 22:17:55 22:22:15 51° 261° (W) 22:26:49 145.822/145.860
M-CUBED/EXP-1 PRIME 27 Apr 22:21:09 22:21:20 10° 315° (NW) 22:21:22 437.505
O/OREOS (USA 219) 27 Apr 22:21:53 22:25:55 31° 107° (ESE) 22:29:58 437.305
UWE-3 27 Apr 22:22:20 22:26:46 85° 75° (ENE) 22:31:22 435.000/436.395/437.385
FUNcube-1 27 Apr 22:25:36 22:30:00 74° 74° (ENE) 22:34:31 145.935
UKube-1 27 Apr 22:27:24 22:31:34 50° 70° (ENE) 22:35:47 .
HUMSAT D 27 Apr 22:28:20 22:32:21 42° 69° (ENE) 22:36:27 437.325/437.525
ESTCUBE 1 27 Apr 22:34:59 22:38:17 21° 61° (ENE) 22:41:40 437.505/2401.250
Oscar 11 27 Apr 22:46:18 22:50:26 40° 263° (W) 22:54:34 145.826/435.025
SEEDS 27 Apr 22:46:36 22:49:22 16° 272° (W) 22:51:59 437.485
TIGRISAT 27 Apr 22:50:14 22:52:16 13° 84° (E) 22:54:31 435.000
ZACube-1 27 Apr 22:52:05 22:56:27 61° 259° (W) 23:00:57 437.345
50 SAT 27 Apr 22:52:14 22:56:04 45° 70° (ENE) 22:59:59 437.505
Cosmos 2504 27 Apr 22:52:54 22:57:22 16° 46° (NE) 23:01:59 435.465 / 435.565
HO-68 27 Apr 22:53:08 22:58:41 22° 272° (W) 23:04:00 435.675
UNISAT 6 27 Apr 22:55:13 22:57:48 15° 86° (E) 23:00:33 437.425
AAUSAT CUBESAT 2 27 Apr 22:57:52 23:00:39 17° 271° (W) 23:03:20 437.432
CUBEBUG 1 27 Apr 23:03:08 23:06:53 30° 66° (ENE) 23:10:42 437.445
VELOX 1 27 Apr 23:04:07 23:08:27 59° 72° (ENE) 23:12:48 145.980
QB50P1 27 Apr 23:16:35 23:17:17 10° 84° (E) 23:18:14 145.935-145.965
AISAT 27 Apr 23:22:54 23:27:19 88° 255° (WSW) 23:31:46 437.250
DX 1 27 Apr 23:23:54 23:28:03 43° 261° (W) 23:32:13 434.975-435.025
RS-15 27 Apr 23:27:10 23:38:40 89° 54° (NE) 23:50:43 29.354- 29.394
TISAT 1 27 Apr 23:35:40 23:38:18 17° 60° (ENE) 23:41:03 437.305
ANTELSAT 27 Apr 23:36:13 23:40:31 34° 95° (E) 23:44:48 437.575/2403.000
Cosmos 2491 27 Apr 23:38:12 23:46:56 82° 97° (E) 23:55:46 435.465 / 435.565
CUBEBUG 2 27 Apr 23:39:52 23:42:50 17° 273° (W) 23:45:43 437.445
QB50P2 27 Apr 23:41:37 23:44:43 19° 90° (E) 23:47:55 145.880/145.840
YUBILEINY 27 Apr 23:43:46 23:51:59 46° 272° (W) 00:00:01 435.215
DELFI C3 27 Apr 23:54:27 23:55:52 11° 275° (W) 23:57:05 145.870
NANOSAT C BR1 27 Apr 23:57:40 00:01:18 27° 94° (E) 00:04:58 145.865
O/OREOS (USA 219) 28 Apr 00:01:00 00:05:17 37° 306° (NW) 00:09:32 437.305
POPSAT HIP 1 28 Apr 00:01:54 00:05:41 29° 95° (E) 00:09:29 437.405
UWE-3 28 Apr 00:02:01 00:04:04 13° 276° (W) 00:05:57 435.000/436.395/437.385
FUNcube-1 28 Apr 00:04:28 00:06:58 14° 274° (W) 00:09:19 145.935
UKube-1 28 Apr 00:04:49 00:08:02 20° 269° (W) 00:11:10 .
HUMSAT D 28 Apr 00:04:50 00:08:18 23° 268° (W) 00:11:45 437.325/437.525
ESTCUBE 1 28 Apr 00:10:22 00:14:49 56° 260° (W) 00:19:17 437.505/2401.250
BUGSAT 1 28 Apr 00:13:38 00:17:10 27° 94° (E) 00:20:46 437.445
SPROUT 28 Apr 00:13:51 00:17:55 44° 69° (ENE) 00:22:01 437.525
TIGRISAT 28 Apr 00:25:02 00:29:48 89° 285° (WNW) 00:34:28 435.000
50 SAT 28 Apr 00:28:10 00:31:09 19° 269° (W) 00:34:04 437.505
UNISAT 6 28 Apr 00:30:29 00:35:14 78° 286° (WNW) 00:39:54 437.425
DUCHIFAT 1 28 Apr 00:30:29 00:34:43 54° 100° (E) 00:38:55 145.980
POLYITAN 1 28 Apr 00:32:32 00:36:49 60° 101° (E) 00:41:06 437.675
CUBEBUG 1 28 Apr 00:39:18 00:43:14 33° 264° (W) 00:47:08 437.445
VELOX 1 28 Apr 00:42:27 00:45:27 17° 271° (W) 00:48:21 145.980
Cosmos 2504 28 Apr 00:45:00 00:53:03 61° 73° (ENE) 01:00:31 435.465 / 435.565
QB50P1 28 Apr 00:49:36 00:53:56 86° 109° (ESE) 00:58:14 145.935-145.965
ITUPSAT 1 28 Apr 00:49:53 00:53:14 20° 59° (ENE) 00:56:42 437.325
AIST 1 28 Apr 01:00:56 01:05:03 46° 94° (E) 01:09:10
AISAT 28 Apr 01:03:16 01:04:41 11° 275° (W) 01:05:53 437.250
TISAT 1 28 Apr 01:09:30 01:13:39 64° 258° (WSW) 01:17:52 437.305
ANTELSAT 28 Apr 01:13:01 01:17:18 34° 294° (WNW) 01:21:28 437.575/2403.000
QB50P2 28 Apr 01:16:45 01:20:57 51° 289° (WNW) 01:25:07 145.880/145.840
BEESAT 28 Apr 01:18:01 01:22:15 33° 65° (ENE) 01:26:31 436.000
SWISSCUBE 28 Apr 01:20:49 01:25:10 37° 66° (ENE) 01:29:34 437.505
NANOSAT C BR1 28 Apr 01:33:17 01:37:15 37° 292° (WNW) 01:41:11 145.865
Cosmos 2491 28 Apr 01:37:38 01:45:00 28° 302° (WNW) 01:52:15 435.465 / 435.565
POPSAT HIP 1 28 Apr 01:37:42 01:41:36 34° 293° (WNW) 01:45:28 437.405
RS-15 28 Apr 01:40:19 01:50:01 32° 254° (WSW) 01:59:42 29.354- 29.394
BUGSAT 1 28 Apr 01:48:55 01:52:43 34° 292° (WNW) 01:56:30 437.445
SPROUT 28 Apr 01:50:50 01:54:14 22° 269° (W) 01:57:35 437.525
Oscar 19 28 Apr 02:02:01 02:05:56 22° 90° (E) 02:09:58 437.125/150
TIGRISAT 28 Apr 02:03:12 02:05:54 15° 303° (WNW) 02:08:25 435.000
DUCHIFAT 1 28 Apr 02:07:04 02:10:13 20° 298° (WNW) 02:13:16 145.980
UNISAT 6 28 Apr 02:09:00 02:11:17 13° 304° (NW) 02:13:24 437.425
POLYITAN 1 28 Apr 02:09:18 02:12:22 19° 299° (WNW) 02:15:19 437.675
GONETS M04 28 Apr 02:09:57 02:16:14 21° 51° (NE) 02:22:45
KKS-1 28 Apr 02:10:03 02:13:24 22° 62° (ENE) 02:16:50 437.445
ITUPSAT 1 28 Apr 02:25:55 02:30:42 68° 257° (WSW) 02:35:30 437.325
QB50P1 28 Apr 02:27:00 02:29:14 14° 302° (WNW) 02:31:19 145.935-145.965
CUSAT 1 28 Apr 02:36:18 02:41:36 21° 55° (NE) 02:47:36 437.405
Cosmos 2504 28 Apr 02:39:02 02:46:02 33° 277° (W) 02:52:29 435.465 / 435.565
AIST 1 28 Apr 02:39:44 02:43:00 20° 294° (WNW) 02:46:11
ITAMSAT 1 28 Apr 02:42:53 02:45:58 16° 87° (E) 02:49:15 435.822/435.867
BEESAT 28 Apr 02:55:37 03:00:03 36° 264° (W) 03:04:29 436.000
STARS 28 Apr 02:57:34 03:01:36 37° 67° (ENE) 03:05:43 437.465
SWISSCUBE 28 Apr 02:58:46 03:03:05 32° 265° (W) 03:07:22 437.505
AIST 2 28 Apr 03:06:01 03:08:25 15° 112° (ESE) 03:10:58 435.215
BEESAT 3 28 Apr 03:20:49 03:24:51 61° 125° (SE) 03:28:57 437.485
BEESAT 2 28 Apr 03:25:35 03:29:38 57° 125° (SE) 03:33:44 435.950
Gurwin Techsat 1B 28 Apr 03:26:39 03:31:27 34° 95° (E) 03:36:17 435.225
DANDE 28 Apr 03:31:59 03:38:31 35° 65° (ENE) 03:46:06 436.750
Oscar 19 28 Apr 03:40:36 03:45:46 62° 290° (WNW) 03:50:53 437.125/150
KKS-1 28 Apr 03:45:23 03:49:44 52° 260° (W) 03:54:08 437.445
AO-7 28 Apr 03:58:37 04:03:23 17° 83° (E) 04:08:37 29.400- 29.500
GONETS M04 28 Apr 04:06:03 04:14:58 76° 77° (ENE) 04:23:48
CUSAT 1 28 Apr 04:18:02 04:25:34 73° 75° (ENE) 04:33:57 437.405
HORYU 2 28 Apr 04:18:11 04:21:34 21° 91° (E) 04:25:01 437.375
ITAMSAT 1 28 Apr 04:21:00 04:26:12 81° 288° (WNW) 04:31:24 435.822/435.867
M-CUBED/EXP-1 PRIME 28 Apr 04:29:49 04:30:44 11° 46° (NE) 04:31:51 437.505
MOZHAYETS 4 28 Apr 04:31:11 04:35:28 39° 68° (ENE) 04:39:49
JAS-2 28 Apr 04:31:58 04:36:56 24° 86° (E) 04:41:36 435.910
STARS 28 Apr 04:34:22 04:38:10 27° 266° (W) 04:41:57 437.465
AIST 2 28 Apr 04:42:12 04:46:29 81° 310° (NW) 04:50:48 435.215
Cosmos 2499 28 Apr 04:58:36 05:05:32 33° 62° (ENE) 05:12:07 435.465 / 435.565
BEESAT 3 28 Apr 04:59:43 05:03:12 25° 326° (NW) 05:06:41 437.485
BEESAT 2 28 Apr 05:04:28 05:08:02 26° 325° (NW) 05:11:36 435.950
Gurwin Techsat 1B 28 Apr 05:06:34 05:11:32 41° 294° (WNW) 05:16:28 435.225
AUBIESAT-1 28 Apr 05:07:03 05:10:13 18° 53° (NE) 05:13:26 437.475
DANDE 28 Apr 05:14:53 05:22:15 68° 262° (W) 05:30:41 436.750
Oscar 19 28 Apr 05:22:05 05:24:13 12° 308° (NW) 05:26:07 437.125/150
PRISM 28 Apr 05:41:03 05:42:42 12° 57° (ENE) 05:44:30 437.425
AO-7 28 Apr 05:49:35 05:57:55 71° 106° (ESE) 06:06:16 29.400- 29.500
STRAND 1 28 Apr 05:50:56 05:53:59 17° 56° (NE) 05:57:13 437.568
HORYU 2 28 Apr 05:54:08 05:58:32 51° 290° (WNW) 06:02:53 437.375
M-CUBED/EXP-1 PRIME 28 Apr 06:00:01 06:04:41 50° 64° (ENE) 06:09:19 437.505
CUSAT 1 28 Apr 06:01:23 06:07:58 32° 272° (W) 06:14:53 437.405
ITAMSAT 1 28 Apr 06:01:58 06:05:01 16° 306° (NW) 06:07:53 435.822/435.867
GONETS M04 28 Apr 06:03:47 06:11:05 29° 279° (W) 06:18:08
MOZHAYETS 4 28 Apr 06:08:45 06:12:50 29° 267° (W) 06:16:50
CUBESAT XI-V 28 Apr 06:15:18 06:19:34 38° 68° (ENE) 06:23:51 437.345
JAS-2 28 Apr 06:16:22 06:22:47 65° 291° (WNW) 06:28:26 435.910
AIST 2 28 Apr 06:22:29 06:25:44 20° 332° (NNW) 06:28:55 435.215
AUBIESAT-1 28 Apr 06:39:39 06:44:29 84° 252° (WSW) 06:49:14 437.475
BEESAT 3 28 Apr 06:41:26 06:42:35 11° 349° (N) 06:43:43 437.485
BEESAT 2 28 Apr 06:46:11 06:47:30 11° 348° (NNW) 06:48:48 435.950
O/OREOS (USA 219) 28 Apr 06:48:16 06:51:43 21° 46° (NE) 06:55:12 437.305
Cosmos 2499 28 Apr 06:51:36 06:59:19 61° 267° (W) 07:06:26 435.465 / 435.565
DANDE 28 Apr 06:59:58 07:04:42 17° 279° (W) 07:09:21 436.750
PRISM 28 Apr 07:13:24 07:17:35 88° 65° (ENE) 07:21:45 437.425
PCSat 28 Apr 07:17:43 07:19:16 11° 103° (ESE) 07:21:06 145.827
STRAND 1 28 Apr 07:27:26 07:32:34 89° 57° (ENE) 07:37:43 437.568
CUTE-I 28 Apr 07:30:52 07:35:57 44° 98° (E) 07:41:03 437.470
M-CUBED/EXP-1 PRIME 28 Apr 07:35:39 07:39:44 26° 262° (W) 07:43:44 437.505
Cubesat XI-IV 28 Apr 07:41:17 07:46:31 54° 100° (E) 07:51:45 437.490
AO-7 28 Apr 07:42:55 07:50:16 36° 307° (NW) 07:57:30 29.400- 29.500
Cosmos 2491 28 Apr 07:47:46 07:52:07 15° 43° (NE) 07:56:54 435.465 / 435.565
CUBESAT XI-V 28 Apr 07:53:04 07:57:07 29° 267° (W) 08:01:07 437.345
JAS-2 28 Apr 08:02:59 08:06:37 15° 313° (NW) 08:09:50 435.910
AIST 2 28 Apr 08:04:52 08:05:54 11° 355° (N) 08:06:55 435.215
